Location: Sobotiste
(48.7170°N, 17.4000°E)
Time: 05:12:17
(UTC+02:00)

AO-73 - Pass Details

Date: 21 March 2026
Orbit: 514 x 567 km, 97.8° (Epoch: 12 April)

Event Time Altitude Azimuth Distance (km) Brightness Sun altitude
Rises 04:23:37 0° 5° (N) 2,658 ? -15.1°
Reaches altitude 10° 04:25:51 10° 356° (N) 1,759 ? -14.7°
Maximum altitude 04:29:17 33° 292° (WNW) 878 ? -14.2°
Enters shadow 04:30:42 25° 250° (WSW) 1,079 ? -14.0°
